Location: Arroyo Grande
(40.2671°N, 4.2512°W)
Time: 06:44:55
(UTC+00:00)

Meteor 1-27 - Pass Details

Date: 03 February 2023
Orbit: 837 x 893 km, 81.3° (Epoch: 25 March)

Event Time Altitude Azimuth Distance (km) Brightness Sun altitude
Rises 18:56:34 0° 353° (N) 3,491 7.4 -15.4°
Reaches altitude 10° 18:59:04 10° 357° (N) 2,541 6.6 -15.8°
Maximum altitude 19:04:49 65° 79° (ENE) 953 4.2 -16.9°
Drops below altitude 10° 19:10:25 10° 161° (SSE) 2,487 6.5 -18.0°
Sets 19:12:51 0° 164° (SSE) 3,411 7.3 -18.4°
